FW0527 Weather Reports


Display with metric or nautical units.
time (UTC)temp
F
wind
direction
speed
MPH
gust
MPH
rain 1hr
in
rain 24hr
in
rain mn
in
humidity
%
barometer
mb
20260508033033 62 323 0.0 0.0 0.00 0.00 0.00 57 1014.1
20260508031533 63 322 0.0 0.0 0.00 0.00 0.00 57 1014.0
20260508030039 64 322 0.0 0.0 0.00 0.00 0.00 55 1013.6
20260508024532 65 322 0.0 0.0 0.00 0.00 0.00 53 1013.6
20260508023031 66 304 0.0 0.0 0.00 0.00 0.00 54 1013.3
20260508021531 67 322 0.0 0.0 0.00 0.00 0.00 55 1013.3
20260508020038 67 304 0.0 0.0 0.00 0.00 0.00 56 1013.1
20260508014530 68 310 0.0 0.0 0.00 0.00 0.00 58 1013.1
20260508013029 69 329 0.0 5.0 0.00 0.00 0.00 54 1013.1
20260508011529 70 300 0.0 6.0 0.00 0.00 0.00 53 1013.1
20260508010033 71 293 0.0 0.0 0.00 0.00 0.00 50 1013.3
20260508004528 72 307 0.0 8.0 0.00 0.00 0.00 50 1013.1
20260508003028 73 278 0.0 2.0 0.00 0.00 0.00 51 1013.1
20260508001546 73 312 0.0 4.0 0.00 0.00 0.00 48 1013.1
20260508000025 74 303 0.0 10.0 0.00 0.00 0.00 47 1013.1
20260507234525 74 322 0.0 17.0 0.00 0.00 0.00 40 1013.0
20260507233023 75 303 0.0 13.0 0.00 0.00 0.00 41 1013.0
20260507231531 75 306 0.0 9.0 0.00 0.00 0.00 44 1013.2
20260507230025 75 319 0.0 8.0 0.00 0.00 0.00 44 1013.2
20260507224526 76 327 0.0 2.0 0.00 0.00 0.00 42 1013.2
20260507223017 76 282 0.0 4.0 0.00 0.00 0.00 39 1013.5
20260507221515 77 306 0.0 11.0 0.00 0.00 0.00 38 1013.4
20260507220021 78 296 1.0 14.0 0.00 0.00 0.00 36 1013.7
20260507214510 78 312 0.0 9.0 0.00 0.00 0.00 37 1013.9
20260507213010 79 254 0.0 14.0 0.00 0.00 0.00 35 1014.1
20260507211506 79 302 1.0 11.0 0.00 0.00 0.00 34 1014.3
20260507210103 80 311 0.0 10.0 0.00 0.00 0.00 34 1014.5
20260507204502 80 315 0.0 3.0 0.00 0.00 0.00 33 1014.8
20260507203102 80 305 0.0 3.0 0.00 0.00 0.00 31 1014.8
20260507201601 81 317 1.0 12.0 0.00 0.00 0.00 29 1014.8
20260507200109 81 315 0.0 8.0 0.00 0.00 0.00 31 1014.8
20260507194556 82 293 0.0 8.0 0.00 0.00 0.00 32 1014.8
20260507193054 83 302 0.0 11.0 0.00 0.00 0.00 31 1015.0
20260507191555 83 305 0.0 0.0 0.00 0.00 0.00 27 1015.2
20260507190053 83 234 0.0 0.0 0.00 0.00 0.00 27 1015.5
20260507184550 83 101 0.0 9.0 0.00 0.00 0.00 20 1015.7
20260507183145 82 261 0.0 0.0 0.00 0.00 0.00 21 1015.7
20260507181543 82 101 0.0 4.0 0.00 0.00 0.00 23 1016.0
20260507180041 80 5 0.0 0.0 0.00 0.00 0.00 23 1016.1
20260507174546 81 82 0.0 0.0 0.00 0.00 0.00 21 1016.1
20260507173037 80 167 0.0 0.0 0.00 0.00 0.00 23 1016.0
20260507171537 79 355 0.0 1.0 0.00 0.00 0.00 24 1016.2
20260507170042 79 355 0.0 8.0 0.00 0.00 0.00 26 1016.2
20260507164532 78 130 0.0 0.0 0.00 0.00 0.00 28 1016.2
20260507163024 76 48 0.0 1.0 0.00 0.00 0.00 31 1016.3
20260507161520 72 97 0.0 8.0 0.00 0.00 0.00 34 1016.3
20260507160017 67 135 0.0 2.0 0.00 0.00 0.00 43 1016.3
20260507154512 61 105 0.0 0.0 0.00 0.00 0.00 60 1016.4
20260507153009 57 321 0.0 0.0 0.00 0.00 0.00 76 1016.4
20260507151501 54 321 0.0 0.0 0.00 0.00 0.00 80 1016.4
20260507150058 53 113 0.0 0.0 0.00 0.00 0.00 82 1016.4
20260507144554 51 113 0.0 0.0 0.00 0.00 0.00 82 1016.4
20260507143050 49 113 0.0 0.0 0.00 0.00 0.00 81 1016.4
20260507141547 48 113 0.0 0.0 0.00 0.00 0.00 79 1016.3
20260507140048 47 113 0.0 0.0 0.00 0.00 0.00 80 1016.4
20260507134544 46 112 0.0 0.0 0.00 0.00 0.00 80 1016.3
20260507133044 46 112 0.0 0.0 0.00 0.00 0.00 80 1016.2
20260507131554 46 112 0.0 0.0 0.00 0.00 0.00 79 1016.2
20260507130050 46 112 0.0 0.0 0.00 0.00 0.00 79 1016.3
20260507124547 46 112 0.0 0.0 0.00 0.01 0.00 80 1016.1
20260507123041 46 112 0.0 0.0 0.00 0.01 0.00 81 1016.0
20260507121539 45 112 0.0 0.0 0.00 0.01 0.00 81 1016.0
20260507120042 45 112 0.0 0.0 0.00 0.01 0.00 82 1016.0
20260507114537 45 112 0.0 0.0 0.00 0.01 0.00 82 1016.0
20260507113034 45 112 0.0 0.0 0.00 0.01 0.00 83 1016.0
20260507111533 46 112 0.0 0.0 0.00 0.01 0.00 83 1016.0
20260507110031 45 112 0.0 0.0 0.00 0.01 0.00 83 1016.1
20260507104530 46 112 0.0 0.0 0.00 0.01 0.00 83 1016.1
20260507103028 46 112 0.0 0.0 0.00 0.01 0.00 83 1016.4
20260507101527 46 112 0.0 0.0 0.00 0.01 0.00 82 1016.4
20260507100033 46 112 0.0 0.0 0.00 0.01 0.00 84 1016.5
20260507094523 46 112 0.0 0.0 0.00 0.01 0.00 84 1016.6
20260507093023 46 112 0.0 0.0 0.00 0.01 0.00 84 1016.7
20260507091522 46 112 0.0 0.0 0.00 0.01 0.00 84 1016.6
20260507090023 46 112 0.0 0.0 0.00 0.01 0.00 84 1016.7
20260507084519 47 112 0.0 0.0 0.00 0.01 0.00 84 1016.9
20260507083018 47 112 0.0 0.0 0.00 0.01 0.00 85 1017.0
20260507081532 47 112 0.0 0.0 0.00 0.01 0.00 86 1017.0
20260507080014 47 112 0.0 0.0 0.00 0.01 0.00 86 1017.2
20260507074523 47 112 0.0 0.0 0.00 0.01 0.00 87 1017.1
20260507073013 47 112 0.0 0.0 0.00 0.01 0.00 87 1017.2
20260507071511 47 112 0.0 0.0 0.00 0.01 0.00 86 1017.3
20260507070017 47 112 0.0 0.0 0.00 0.01 0.00 86 1017.3
20260507064509 48 112 0.0 0.0 0.00 0.01 0.01 86 1017.4
20260507063016 48 112 0.0 0.0 0.00 0.01 0.01 86 1017.4
20260507061508 48 112 0.0 0.0 0.00 0.01 0.01 86 1017.3
20260507060008 49 112 0.0 0.0 0.00 0.01 0.01 86 1017.6
20260507054507 49 222 0.0 0.0 0.00 0.01 0.01 86 1017.6
20260507053007 49 305 0.0 0.0 0.00 0.01 0.01 85 1017.7
20260507051506 49 305 0.0 0.0 0.00 0.01 0.01 84 1017.6
20260507050013 50 305 0.0 0.0 0.00 0.01 0.01 84 1017.6
20260507044604 51 305 0.0 0.0 0.00 0.01 0.01 83 1017.6
20260507043004 51 305 0.0 0.0 0.00 0.01 0.01 81 1017.6
20260507041503 52 305 0.0 0.0 0.00 0.01 0.01 80 1017.6
20260507040005 53 305 0.0 0.0 0.00 0.01 0.01 79 1017.6
20260507034501 54 305 0.0 0.0 0.00 0.01 0.01 78 1017.5